Regional Weather Roundup
Issued by NWS

Home | Current Version | Previous Version | Graphics & Text | Print | Product List | Glossary On
Versions: 1 2 3 4 5 6 7 8 9 10 11 12 13 14 15 16 17 18 19 20 21 22 23 24 25 26 27 28 29 30 31 32 33 34 35 36 37 38 39 40 41 42 43 44 45 46 47 48 49 50
305
ASUS45 KBOI 050810
RWRID

IDAHO REGIONAL WEATHER ROUNDUP
NATIONAL WEATHER SERVICE BOISE ID
100 AM MST MON DEC 05 2016

NOTE: "FAIR" INDICATES FEW OR NO CLOUDS BELOW 12000 FEET
WITH NO SIGNIFICANT WEATHER AND/OR OBSTRUCTIONS TO VISIBILITY

IDZ012-014-050900-
SOUTHWEST IDAHO


CITY           SKY/WX    TMP DP  RH WIND       PRES   REMARKS
BOISE          CLEAR     28  18  66 N9        30.03R WCI  19
CALDWELL       CLEAR     28  18  66 W13       30.06R WCI  17
MOUNTAIN HOME  PTCLDY    29  21  70 NW22      29.99R WCI  16
$$

IDZ016-017-050900-
SOUTHCENTRAL IDAHO


CITY           SKY/WX    TMP DP  RH WIND       PRES   REMARKS
BURLEY         MIX PCPN  28  24  85 W20G31    29.87R WCI  15
JEROME         CLOUDY    28  25  88 SW17      29.92R WCI  16
TWIN FALLS     CLOUDY    26  20  77 SW22G29   29.93R WCI  12
$$

IDZ019>023-050900-
SOUTHEAST IDAHO


CITY           SKY/WX    TMP DP  RH WIND       PRES   REMARKS
IDAHO FALLS    CLOUDY    32  28  85 SW24G32   29.67R WCI  19
POCATELLO      MIX PCPN  31  28  89 SW35G43   29.79R WCI  15
REXBURG        FLURRIES  32  28  85 SW20G30   29.64R WCI  20
$$

IDZ006-010-011-018-031-032-050900-
CENTRAL IDAHO MOUNTAINS


CITY           SKY/WX    TMP DP  RH WIND       PRES   REMARKS
MCCALL         CLEAR     17  12  80 W5        29.88R WCI  10
HAILEY         CLEAR     23   3  42 NW7       29.75R WCI  15
STANLEY          N/A      7   1  76 N5        29.80R WCI  -2
SALMON         PTCLDY    25  12  58 NW13G20   29.83S WCI  13
CHALLIS        FLURRIES  24  14  65 W18       29.79R WCI  10
$$

IDZ002-004-006-007-026-050900-
NORTHERN IDAHO


CITY           SKY/WX    TMP DP  RH WIND       PRES   REMARKS
LEWISTON       CLEAR     32  19  58 SW3       30.05R
LOWELL           N/A     31  28  89 NW3       30.06R
COEUR D`ALENE  CLEAR     25  17  72 W5        29.95R WCI  19
MULLAN PASS    CLOUDY    11   8  88 NW10G21   29.69R WCI  -3
$$




USA.gov is the U.S. government's official web portal to all federal, state and local government web resources and services.